Time,TemperatureF,DewpointF,PressureIn,WindDirection,WindDirectionDegrees,WindSpeedMPH,WindSpeedGustMPH,Humidity,HourlyPrecipIn,Conditions,Clouds,dailyrainin,SoftwareType,DateUTC
2013-04-21 00:03:00,36.0,24.0,30.23,North,355,1.0,-999.0,61,-99.99,,,0.00,weatherlink.com 1.10,2013-04-21 04:03:00,
2013-04-21 00:18:00,35.8,24.0,30.21,North,355,0.0,-999.0,62,-99.99,,,0.00,weatherlink.com 1.10,2013-04-21 04:18:00,
2013-04-21 00:33:00,35.8,24.0,30.21,North,355,0.0,-999.0,62,-99.99,,,0.00,weatherlink.com 1.10,2013-04-21 04:33:00,
2013-04-21 00:48:00,35.9,23.0,30.21,North,355,2.0,-999.0,61,-99.99,,,0.00,weatherlink.com 1.10,2013-04-21 04:48:00,
2013-04-21 01:04:00,35.9,24.0,30.22,NW,322,1.0,-999.0,62,-99.99,,,0.00,weatherlink.com 1.10,2013-04-21 05:04:00,
2013-04-21 01:19:00,35.8,23.0,30.22,NW,322,1.0,-999.0,61,-99.99,,,0.00,weatherlink.com 1.10,2013-04-21 05:19:00,
2013-04-21 01:34:00,35.9,23.0,30.21,NW,322,0.0,-999.0,59,-99.99,,,0.00,weatherlink.com 1.10,2013-04-21 05:34:00,
2013-04-21 01:49:00,36.0,22.0,30.21,NW,322,0.0,-999.0,56,-99.99,,,0.00,weatherlink.com 1.10,2013-04-21 05:49:00,
2013-04-21 02:04:00,36.2,21.0,30.21,NW,322,0.0,-999.0,54,-99.99,,,0.00,weatherlink.com 1.10,2013-04-21 06:04:00,
2013-04-21 02:19:00,36.3,21.0,30.21,NW,322,0.0,-999.0,54,-99.99,,,0.00,weatherlink.com 1.10,2013-04-21 06:19:00,
2013-04-21 02:34:00,36.3,21.0,30.21,NW,322,0.0,-999.0,55,-99.99,,,0.00,weatherlink.com 1.10,2013-04-21 06:34:00,
2013-04-21 02:49:00,36.3,21.0,30.20,NW,322,0.0,-999.0,55,-99.99,,,0.00,weatherlink.com 1.10,2013-04-21 06:49:00,
2013-04-21 03:04:00,36.2,22.0,30.21,NW,322,0.0,-999.0,56,-99.99,,,0.00,weatherlink.com 1.10,2013-04-21 07:04:00,
2013-04-21 03:19:00,36.0,22.0,30.20,NW,322,0.0,-999.0,57,-99.99,,,0.00,weatherlink.com 1.10,2013-04-21 07:19:00,
2013-04-21 03:34:00,36.2,23.0,30.20,NW,322,1.0,-999.0,58,-99.99,,,0.00,weatherlink.com 1.10,2013-04-21 07:34:00,
2013-04-21 03:49:00,35.9,22.0,30.20,NW,322,0.0,-999.0,57,-99.99,,,0.00,weatherlink.com 1.10,2013-04-21 07:49:00,
2013-04-21 04:04:00,35.9,22.0,30.20,NW,322,0.0,-999.0,57,-99.99,,,0.00,weatherlink.com 1.10,2013-04-21 08:04:00,
2013-04-21 04:19:00,35.5,22.0,30.20,NW,322,0.0,-999.0,59,-99.99,,,0.00,weatherlink.com 1.10,2013-04-21 08:19:00,
2013-04-21 04:34:00,35.5,21.0,30.20,NW,322,1.0,-999.0,57,-99.99,,,0.00,weatherlink.com 1.10,2013-04-21 08:34:00,
2013-04-21 04:49:00,35.8,21.0,30.21,NW,322,1.0,-999.0,56,-99.99,,,0.00,weatherlink.com 1.10,2013-04-21 08:49:00,
2013-04-21 05:04:00,35.9,21.0,30.20,NW,322,1.0,-999.0,56,-99.99,,,0.00,weatherlink.com 1.10,2013-04-21 09:04:00,
2013-04-21 05:19:00,35.9,21.0,30.22,NW,322,0.0,-999.0,56,-99.99,,,0.00,weatherlink.com 1.10,2013-04-21 09:19:00,
2013-04-21 05:34:00,35.8,21.0,30.23,NW,322,0.0,-999.0,56,-99.99,,,0.00,weatherlink.com 1.10,2013-04-21 09:34:00,
2013-04-21 05:49:00,35.8,21.0,30.23,NW,322,0.0,-999.0,56,-99.99,,,0.00,weatherlink.com 1.10,2013-04-21 09:49:00,
2013-04-21 06:04:00,35.8,22.0,30.24,NW,321,1.0,-999.0,57,-99.99,,,0.00,weatherlink.com 1.10,2013-04-21 10:04:00,
2013-04-21 06:19:00,35.9,22.0,30.26,NW,321,0.0,-999.0,57,-99.99,,,0.00,weatherlink.com 1.10,2013-04-21 10:19:00,
2013-04-21 06:34:00,35.9,22.0,30.26,West,277,0.0,-999.0,58,-99.99,,,0.00,weatherlink.com 1.10,2013-04-21 10:34:00,
2013-04-21 06:49:00,35.8,23.0,30.27,SSE,148,0.0,-999.0,59,-99.99,,,0.00,weatherlink.com 1.10,2013-04-21 10:49:00,
2013-04-21 07:04:00,35.6,23.0,30.28,SSE,158,0.0,-999.0,60,-99.99,,,0.00,weatherlink.com 1.10,2013-04-21 11:04:00,
2013-04-21 07:19:00,35.8,23.0,30.30,South,191,0.0,-999.0,59,-99.99,,,0.00,weatherlink.com 1.10,2013-04-21 11:19:00,
2013-04-21 07:34:00,36.0,23.0,30.31,South,191,0.0,-999.0,59,-99.99,,,0.00,weatherlink.com 1.10,2013-04-21 11:34:00,
2013-04-21 07:49:00,36.8,23.0,30.31,East,83,0.0,-999.0,58,-99.99,,,0.00,weatherlink.com 1.10,2013-04-21 11:49:00,
2013-04-21 08:04:00,38.8,25.0,30.31,NNE,32,1.0,-999.0,57,-99.99,,,0.00,weatherlink.com 1.10,2013-04-21 12:04:00,
2013-04-21 08:19:00,39.3,25.0,30.31,East,89,0.0,-999.0,56,-99.99,,,0.00,weatherlink.com 1.10,2013-04-21 12:19:00,
2013-04-21 08:34:00,38.3,24.0,30.32,North,350,0.0,-999.0,56,-99.99,,,0.00,weatherlink.com 1.10,2013-04-21 12:34:00,
2013-04-21 08:49:00,37.8,24.0,30.33,NE,34,1.0,-999.0,58,-99.99,,,0.00,weatherlink.com 1.10,2013-04-21 12:49:00,
2013-04-21 09:04:00,37.6,23.0,30.34,ENE,63,1.0,-999.0,57,-99.99,,,0.00,weatherlink.com 1.10,2013-04-21 13:04:00,
2013-04-21 09:19:00,39.1,23.0,30.33,ENE,65,2.0,-999.0,53,-99.99,,,0.00,weatherlink.com 1.10,2013-04-21 13:19:00,
2013-04-21 09:34:00,37.9,23.0,30.34,ENE,78,1.0,-999.0,56,-99.99,,,0.00,weatherlink.com 1.10,2013-04-21 13:34:00,
2013-04-21 09:49:00,37.9,22.0,30.34,ENE,69,2.0,-999.0,53,-99.99,,,0.00,weatherlink.com 1.10,2013-04-21 13:49:00,
2013-04-21 10:04:00,38.8,25.0,30.35,NE,39,2.0,-999.0,59,-99.99,,,0.00,weatherlink.com 1.10,2013-04-21 14:04:00,
2013-04-21 10:19:00,39.9,24.0,30.34,East,82,2.0,-999.0,54,-99.99,,,0.00,weatherlink.com 1.10,2013-04-21 14:19:00,
2013-04-21 10:34:00,41.3,25.0,30.34,ENE,67,5.0,-999.0,52,-99.99,,,0.00,weatherlink.com 1.10,2013-04-21 14:34:00,
2013-04-21 10:49:00,40.8,24.0,30.34,NNE,23,2.0,-999.0,52,-99.99,,,0.00,weatherlink.com 1.10,2013-04-21 14:49:00,
2013-04-21 11:04:00,41.6,27.0,30.35,NE,44,4.0,-999.0,57,-99.99,,,0.00,weatherlink.com 1.10,2013-04-21 15:04:00,
2013-04-21 11:19:00,43.6,26.0,30.32,ENE,58,2.0,-999.0,50,-99.99,,,0.00,weatherlink.com 1.10,2013-04-21 15:19:00,
2013-04-21 11:34:00,43.8,26.0,30.32,NE,53,4.0,-999.0,50,-99.99,,,0.00,weatherlink.com 1.10,2013-04-21 15:34:00,
2013-04-21 11:49:00,43.6,25.0,30.32,NNE,31,4.0,-999.0,49,-99.99,,,0.00,weatherlink.com 1.10,2013-04-21 15:49:00,
2013-04-21 12:04:00,45.2,26.0,30.32,SE,126,2.0,-999.0,48,-99.99,,,0.00,weatherlink.com 1.10,2013-04-21 16:04:00,
2013-04-21 12:19:00,44.8,27.0,30.32,East,85,2.0,-999.0,50,-99.99,,,0.00,weatherlink.com 1.10,2013-04-21 16:19:00,
2013-04-21 12:34:00,45.1,25.0,30.32,NNE,33,4.0,-999.0,46,-99.99,,,0.00,weatherlink.com 1.10,2013-04-21 16:34:00,
2013-04-21 12:49:00,45.5,26.0,30.31,ESE,115,0.0,-999.0,47,-99.99,,,0.00,weatherlink.com 1.10,2013-04-21 16:49:00,
2013-04-21 13:04:00,47.1,27.0,30.29,NE,41,4.0,-999.0,45,-99.99,,,0.00,weatherlink.com 1.10,2013-04-21 17:04:00,
2013-04-21 13:19:00,46.7,26.0,30.29,NNE,19,4.0,-999.0,44,-99.99,,,0.00,weatherlink.com 1.10,2013-04-21 17:19:00,
2013-04-21 13:34:00,48.3,28.0,30.28,ENE,76,4.0,-999.0,45,-99.99,,,0.00,weatherlink.com 1.10,2013-04-21 17:34:00,
2013-04-21 13:49:00,48.6,28.0,30.28,NE,41,5.0,-999.0,45,-99.99,,,0.00,weatherlink.com 1.10,2013-04-21 17:49:00,
2013-04-21 14:04:00,48.8,29.0,30.27,East,80,2.0,-999.0,47,-99.99,,,0.00,weatherlink.com 1.10,2013-04-21 18:04:00,
2013-04-21 14:19:00,49.6,29.0,30.26,ENE,74,3.0,-999.0,45,-99.99,,,0.00,weatherlink.com 1.10,2013-04-21 18:19:00,
2013-04-21 14:34:00,49.4,28.0,30.25,NNE,26,4.0,-999.0,44,-99.99,,,0.00,weatherlink.com 1.10,2013-04-21 18:34:00,
2013-04-21 14:50:00,50.7,29.0,30.25,NE,46,1.0,-999.0,43,-99.99,,,0.00,weatherlink.com 1.10,2013-04-21 18:50:00,
2013-04-21 15:05:00,50.5,28.0,30.25,ENE,68,5.0,-999.0,42,-99.99,,,0.00,weatherlink.com 1.10,2013-04-21 19:05:00,
2013-04-21 15:20:00,50.5,27.0,30.25,North,355,5.0,-999.0,40,-99.99,,,0.00,weatherlink.com 1.10,2013-04-21 19:20:00,
2013-04-21 15:35:00,50.1,27.0,30.24,ENE,71,4.0,-999.0,41,-99.99,,,0.00,weatherlink.com 1.10,2013-04-21 19:35:00,
2013-04-21 15:50:00,51.1,27.0,30.23,NNE,29,1.0,-999.0,39,-99.99,,,0.00,weatherlink.com 1.10,2013-04-21 19:50:00,
2013-04-21 16:05:00,51.9,29.0,30.23,East,83,7.0,-999.0,41,-99.99,,,0.00,weatherlink.com 1.10,2013-04-21 20:05:00,
2013-04-21 16:20:00,51.1,29.0,30.23,NNW,346,3.0,-999.0,43,-99.99,,,0.00,weatherlink.com 1.10,2013-04-21 20:20:00,
2013-04-21 16:35:00,51.0,29.0,30.22,East,86,0.0,-999.0,43,-99.99,,,0.00,weatherlink.com 1.10,2013-04-21 20:35:00,
2013-04-21 16:50:00,50.7,28.0,30.21,ENE,57,0.0,-999.0,42,-99.99,,,0.00,weatherlink.com 1.10,2013-04-21 20:50:00,
2013-04-21 17:05:00,50.5,28.0,30.21,East,83,4.0,-999.0,42,-99.99,,,0.00,weatherlink.com 1.10,2013-04-21 21:05:00,
2013-04-21 17:20:00,50.1,29.0,30.21,ESE,103,4.0,-999.0,44,-99.99,,,0.00,weatherlink.com 1.10,2013-04-21 21:20:00,
2013-04-21 17:35:00,49.5,28.0,30.21,ESE,117,5.0,-999.0,44,-99.99,,,0.00,weatherlink.com 1.10,2013-04-21 21:35:00,
2013-04-21 17:50:00,49.2,30.0,30.21,NNE,33,4.0,-999.0,47,-99.99,,,0.00,weatherlink.com 1.10,2013-04-21 21:50:00,
2013-04-21 18:05:00,48.8,29.0,30.22,ENE,71,0.0,-999.0,47,-99.99,,,0.00,weatherlink.com 1.10,2013-04-21 22:05:00,
2013-04-21 18:20:00,48.5,28.0,30.22,SE,138,4.0,-999.0,46,-99.99,,,0.00,weatherlink.com 1.10,2013-04-21 22:20:00,
2013-04-21 18:35:00,48.0,28.0,30.22,SE,136,7.0,-999.0,47,-99.99,,,0.00,weatherlink.com 1.10,2013-04-21 22:35:00,
2013-04-21 18:50:00,47.0,29.0,30.23,NE,40,6.0,-999.0,49,-99.99,,,0.00,weatherlink.com 1.10,2013-04-21 22:50:00,
2013-04-21 19:05:00,46.0,29.0,30.23,East,99,0.0,-999.0,51,-99.99,,,0.00,weatherlink.com 1.10,2013-04-21 23:05:00,
2013-04-21 19:20:00,45.2,28.0,30.22,SSE,153,3.0,-999.0,52,-99.99,,,0.00,weatherlink.com 1.10,2013-04-21 23:20:00,
2013-04-21 19:35:00,44.6,29.0,30.24,ESE,107,3.0,-999.0,54,-99.99,,,0.00,weatherlink.com 1.10,2013-04-21 23:35:00,
2013-04-21 19:50:00,43.8,29.0,30.25,SSW,208,3.0,-999.0,56,-99.99,,,0.00,weatherlink.com 1.10,2013-04-21 23:50:00,
2013-04-21 20:05:00,42.9,29.0,30.26,ESE,105,2.0,-999.0,58,-99.99,,,0.00,weatherlink.com 1.10,2013-04-22 00:05:00,
2013-04-21 20:20:00,41.9,29.0,30.27,East,82,1.0,-999.0,60,-99.99,,,0.00,weatherlink.com 1.10,2013-04-22 00:20:00,
2013-04-21 20:35:00,41.6,29.0,30.28,East,97,0.0,-999.0,62,-99.99,,,0.00,weatherlink.com 1.10,2013-04-22 00:35:00,
2013-04-21 20:50:00,41.1,30.0,30.30,SSE,150,0.0,-999.0,64,-99.99,,,0.00,weatherlink.com 1.10,2013-04-22 00:50:00,
2013-04-21 21:05:00,40.2,30.0,30.30,ENE,73,5.0,-999.0,67,-99.99,,,0.00,weatherlink.com 1.10,2013-04-22 01:05:00,
2013-04-21 21:20:00,39.9,30.0,30.31,ESE,110,0.0,-999.0,68,-99.99,,,0.00,weatherlink.com 1.10,2013-04-22 01:20:00,
2013-04-21 21:35:00,39.2,30.0,30.31,ESE,118,1.0,-999.0,70,-99.99,,,0.00,weatherlink.com 1.10,2013-04-22 01:35:00,
2013-04-21 21:50:00,38.8,30.0,30.32,WSW,246,0.0,-999.0,71,-99.99,,,0.00,weatherlink.com 1.10,2013-04-22 01:50:00,
2013-04-21 22:05:00,38.2,30.0,30.33,SSE,148,0.0,-999.0,71,-99.99,,,0.00,weatherlink.com 1.10,2013-04-22 02:05:00,
2013-04-21 22:20:00,38.0,29.0,30.32,NE,42,0.0,-999.0,71,-99.99,,,0.00,weatherlink.com 1.10,2013-04-22 02:20:00,
2013-04-21 22:35:00,37.8,30.0,30.33,NE,42,0.0,-999.0,72,-99.99,,,0.00,weatherlink.com 1.10,2013-04-22 02:35:00,
2013-04-21 22:50:00,37.8,30.0,30.32,NE,42,2.0,-999.0,73,-99.99,,,0.00,weatherlink.com 1.10,2013-04-22 02:50:00,
2013-04-21 23:05:00,37.8,30.0,30.33,South,188,0.0,-999.0,74,-99.99,,,0.00,weatherlink.com 1.10,2013-04-22 03:05:00,
2013-04-21 23:20:00,37.6,31.0,30.30,South,184,0.0,-999.0,76,-99.99,,,0.00,weatherlink.com 1.10,2013-04-22 03:20:00,
2013-04-21 23:35:00,37.2,31.0,30.30,SSW,211,0.0,-999.0,77,-99.99,,,0.00,weatherlink.com 1.10,2013-04-22 03:35:00,
2013-04-21 23:50:00,36.8,31.0,30.30,South,187,0.0,-999.0,80,-99.99,,,0.00,weatherlink.com 1.10,2013-04-22 03:50:00,